Regional Weather Roundup
Issued by NWS

Home | Current Version | Previous Version | Text Only | Print | Product List | Glossary On
Versions: 1 2 3 4 5 6 7 8 9 10 11 12 13 14 15 16 17 18 19 20 21 22 23 24 25 26 27 28 29 30 31 32 33 34 35 36 37 38 39 40 41 42 43 44 45 46 47 48 49 50
000
ASUS46 KLOX 020313
RWRCA

SOUTHERN CALIFORNIA WEATHER ROUNDUP
NATIONAL WEATHER SERVICE OXNARD CALIFORNIA
800 PM PDT WED JUL 01 2015

NOTE: "FAIR" INDICATES FEW OR NO CLOUDS BELOW 12,000 FEET WITH NO
SIGNIFICANT WEATHER AND/OR OBSTRUCTIONS TO VISIBILITY.

  -  STATIONS PRECEEDED BY AN ASTERISK (*) ARE NOT NWS OR FAA
     STATIONS AND ARE NOT SUBJECT TO NWS AND FAA QUALITY CONTROL.

CAZ041-042-087-020400-
LA AND ORANGE COUNTY COASTAL AREAS


CITY           SKY/WX    TMP DP  RH WIND       PRES   REMARKS
L.A. DOWNTOWN  MOCLDY    72  60  66 W3        29.92R
L.A. AIRPORT   MOCLDY    67  64  90 W10       29.93R
LONG BEACH     PTCLDY    75  61  61 NW6       29.92R

CITY           SKY/WX    TMP DP  RH WIND       PRES   REMARKS
AVALON           N/A     68 N/A N/A NW2         N/A
FULLERTON      PTCLDY    73  63  70 S7        29.91R
*GETTY CENTER    N/A     64  61  88 S3          N/A
HAWTHORNE      MOCLDY    70  63  78 W7        29.93R
*LOS ALAMITOS  MOCLDY    68  65  91 S6        29.92R
*REDONDO BEACH   N/A     68  63  84 W1        29.93R
SANTA ANA      MOCLDY    71  65  81 W6        29.92R
STA MONICA APT MOCLDY    68  63  84 W6        29.93R
TORRANCE       MOCLDY    70  66  88 NW8       29.92R
*UCLA            N/A     66  61  82 SW7       29.91R

$$

CAZ547-548-048-020400-
LA COUNTY VALLEYS AND INLAND EMPIRE


CITY           SKY/WX    TMP DP  RH WIND       PRES   REMARKS
BURBANK        CLOUDY    78  56  46 SE12      29.93R
VAN NUYS       CLOUDY    78  53  41 E9        29.92R

CITY           SKY/WX    TMP DP  RH WIND       PRES   REMARKS
CORONA AIRPORT PTCLDY    76  60  57 NW8       29.92R
*CHATSWORTH      N/A     80  52  37 NE3       29.88R
CHINO          MOCLDY    78  59  51 NW14      29.93R
MARCH AFB      PTCLDY    81  52  35 NW8       29.94R
*NORTHRIDGE      N/A     79  46  31 E6          N/A
ONTARIO        MOCLDY    79  57  46 W12       29.92R
*PASADENA        N/A     77  59  53 CALM        N/A
POMONA         CLEAR     75  57  53 W10       29.97
RIVERSIDE      PTCLDY    80  58  46 W8        29.92R
SAN BERNARDINO MOCLDY    81  54  39 W8        29.93R
*SAN GABRIEL     N/A     77  58  52 SW3       29.98R
*WHITEMAN AP   MOCLDY   N/A N/A N/A E9        29.96R
*WOODLAND HILL   N/A     81  52  36 NE3         N/A

$$

CAZ054-055-020400-
LA AND SAN BERNARDINO COUNTY MOUNTAINS


CITY           SKY/WX    TMP DP  RH WIND       PRES   REMARKS
*BIG BEAR AIRP PTCLDY    63  52  67 W7        30.27R
SANDBERG       PTCLDY    76  50  40 S10       30.13R

$$

CAZ028-029-059-060-099-020400-
ANTELOPE VALLEY AND SURROUNDING AREAS


CITY           SKY/WX    TMP DP  RH WIND       PRES   REMARKS
LANCASTER      MOCLDY    86  52  30 SW12      29.95R
PALMDALE       MOCLDY    85  49  28 SW9       29.97R

CITY           SKY/WX    TMP DP  RH WIND       PRES   REMARKS
29 PALMS       MOCLDY    87  63  44 SW12      29.98R
BARSTOW/DAGGET PTCLDY    91  58  32 W9        29.89R HX  90
BISHOP         PTCLDY    90  49  24 S10       30.00R
CHINA LAKE     MOCLDY    93  56  28 SE5       29.89S HX  91
EDWARDS AFB    MOCLDY    87  56  34 SW8       29.91S
MOJAVE         FAIR      84  55  37 SW9       29.97S
NEEDLES        PTCLDY    96  61  31 SW15G23   29.81  HX  96
VICTORVILLE    PTCLDY    84  52  32 SW9G18    29.97S

$$

CAZ039-040-020400-
VENTURA AND SANTA BARBARA COUNTY COAST


CITY           SKY/WX    TMP DP  RH WIND       PRES   REMARKS
CAMARILLO      MOCLDY    68  59  73 W7        29.91R
NWS OXNARD       N/A     67  59  77 CALM      29.92R
OXNARD AIRPORT MOCLDY    66  60  81 W7        29.91R
*POINT MUGU    MOCLDY    69  60  73 W7        29.92R
SBA APT/GOLETA CLOUDY    64  59  83 W9        29.89S
*SANTA BARBARA   N/A     68  58  70 CALM      29.98R
*VENTURA         N/A     67  59  75 CALM      29.53R

$$

CAZ044-045-020400-
VENTURA COUNTY VALLEYS


CITY           SKY/WX    TMP DP  RH WIND       PRES   REMARKS
*SIMI VALLEY     N/A     77  58  51 CALM      29.85R
*OJAI            N/A     79  58  48 CALM      29.83R
*FILLMORE        N/A     76  60  56 CALM      29.81R

$$

CAZ053-020400-
VENTURA COUNTY MOUNTAINS


CITY           SKY/WX    TMP DP  RH WIND       PRES   REMARKS

$$

CAZ034-035-036-020400-
CENTRAL COAST AND SANTA YNEZ VALLEY


CITY           SKY/WX    TMP DP  RH WIND       PRES   REMARKS
SAN LUIS OBISP PTCLDY    65  56  72 NW6       29.91R
SANTA MARIA    PTCLDY    64  58  80 NW5       29.93R

CITY           SKY/WX    TMP DP  RH WIND       PRES   REMARKS
*CAL POLY SLO    N/A     68  57  68 S3          N/A
*LOMPOC        MOCLDY    63  54  72 W6        29.93S
*PISMO BEACH     N/A     60  58  92 SW3       29.92S
*SANTA YNEZ    FAIR      73  54  49 W7        29.91R

$$

CAZ037-038-051-020400-
SAN LUIS OBISPO COUNTY INTERIOR AND CUYAMA VALLEY


CITY           SKY/WX    TMP DP  RH WIND       PRES   REMARKS
*CUYAMA          N/A     85  40  19 W7        29.80R
PASO ROBLES    MOCLDY    83  46  27 SW12      29.89R

$$

CAZ032-033-061-020400-
SOUTHERN DESERTS


CITY           SKY/WX    TMP DP  RH WIND       PRES   REMARKS
BLYTHE         CLEAR     93  60  33 S12       29.81S HX  93
IMPERIAL       CLOUDY    91  66  43 CALM      29.77F HX  93
PALM SPRINGS   CLOUDY    94  64  37 E9        29.85R HX  95
THERMAL        CLOUDY    91  71  51 SE10      29.79R HX  97

$$

ELSEWHERE ACROSS THE WESTERN UNITED STATES AND MEXICO


CITY           SKY/WX    TMP DP  RH WIND       PRES   REMARKS
DENVER, CO     MOCLDY    65  59  81 SE8       30.17S
GRAND CANYON,  CLOUDY    76  52  43 CALM      30.22R
HONOLULU, HI   MOSUNNY   84  68  58 SW10      29.85S
KAHULUI, MAUI  SUNNY     90  70  51 NE13      29.84  HX  95
LAKE TAHOE, CA CLOUDY    77  52  41 CALM      30.25R
LAS VEGAS, NV  MOCLDY   101  52  19 SW13      29.78R HX  98
MAMMOTH LAKES, FAIR      73  46  38 NW8       30.29S
MEXICO CITY, M MOCLDY    61  54  77 W5        30.32S
PHOENIX, AZ    CLOUDY    97  61  30 W16       29.79R HX  97
PORTLAND, OR   CLEAR     90  55  30 NW12      29.86R
RENO, NV       CLOUDY    89  48  24 W16       30.07R
SALT LAKE CITY MOCLDY    91  49  23 NW8       29.97S
SAN DIEGO, CA  LGT RAIN  72  65  78 SW6       29.93R
SAN FRANCISCO, CLOUDY    62  56  80 NW15      29.88R
SAN JOSE, CA   CLOUDY    73  58  59 N5        29.88R
SEATTLE, WA    CLEAR     85  55  35 N13       29.96R
TIJUANA, MEX   MOCLDY    68  64  88 W8        29.95R

$$

STATION/POSITION TIME  TEMP    WIND        PRES    VSBY  WAVE
                       AIR SEA DIR/SP/G                  HT/PER
                 (UTC) (F)     (DEG/KT/KT) (MB)    (MI)  (FT/S)
POINT ARGUELLO B NOT AVBL
WEST SANTA BARBA 0250   59 59  300/ 12/ 16 1011.9R         4/ 8
POINT CONCEPTION NOT AVBL
EAST SANTA BARBA 0300   61 64  270/ 12/ 16 1013.0R
SANTA MONICA BAY 0250   65 66  250/  4/  6 1013.2R         3/16


USA.gov is the U.S. government's official web portal to all federal, state and local government web resources and services.